DW9907 Weather Reports


time (UTC)temp
C
wind
direction
speed
KPH
gust
KPH
rain 1hr
cm
rain 24hr
cm
rain mn
cm
humidity
%
barometer
mb
20260505070100 15 185 46.7 62.8 0.00 0.00 0.00 45 1002.3
20260505060030 16 185 38.6 49.9 0.00 0.00 0.00 54 1002.1
20260505054536 16 185 33.8 46.7 0.00 0.00 0.00 55 1002.4
20260505053033 17 185 27.4 41.8 0.00 0.00 0.00 54 1002.1
20260505051531 17 185 25.7 37.0 0.00 0.00 0.00 53 1001.7
20260505041544 18 185 19.3 35.4 0.00 0.00 0.00 50 1000.6
20260505040038 18 185 20.9 35.4 0.00 0.00 0.00 49 1000.6
20260505034533 18 185 17.7 40.2 0.00 0.00 0.00 49 1000.6
20260505033032 18 185 22.5 33.8 0.00 0.00 0.00 49 1000.6
20260505031540 18 185 19.3 25.7 0.00 0.00 0.00 48 1000.8
20260505030029 19 185 17.7 32.2 0.00 0.00 0.00 47 1000.9
20260505024530 19 185 19.3 29.0 0.00 0.00 0.00 46 1000.6
20260505023030 20 185 19.3 27.4 0.00 0.00 0.00 46 1000.6
20260505021534 20 185 16.1 27.4 0.00 0.00 0.00 44 1000.4
20260505020032 21 185 16.1 27.4 0.00 0.00 0.00 42 1000.2
20260505014544 21 185 20.9 37.0 0.00 0.00 0.00 40 1000.1
20260505013031 22 185 19.3 32.2 0.00 0.00 0.00 40 999.9
20260505011530 22 185 29.0 40.2 0.00 0.00 0.00 38 999.9
20260505010028 23 185 24.1 37.0 0.00 0.00 0.00 35 1000.1
20260505004537 24 185 24.1 38.6 0.00 0.00 0.00 33 999.8
20260505003029 25 185 25.7 35.4 0.00 0.00 0.00 32 1000.2
20260505001532 26 185 6.4 9.7 0.00 0.00 0.00 34 1000.4
20260505000038 27 185 6.4 9.7 0.00 0.00 0.00 33 1000.0
20260504234534 27 185 9.7 14.5 0.00 0.00 0.00 27 1000.0
20260504233033 28 185 3.2 12.9 0.00 0.00 0.00 27 1000.1
20260504231532 28 185 4.8 19.3 0.00 0.00 0.00 25 1000.3
20260504230030 28 185 12.9 30.6 0.00 0.00 0.00 22 1000.2
20260504224531 29 185 12.9 22.5 0.00 0.00 0.00 22 1000.2
20260504223052 30 185 14.5 19.3 0.00 0.00 0.00 22 1000.1
20260504221528 30 185 12.9 20.9 0.00 0.00 0.00 20 1000.2
20260504220032 30 185 8.0 20.9 0.00 0.00 0.00 20 1000.3
20260504214532 30 185 14.5 20.9 0.00 0.00 0.00 20 1000.3
20260504213045 30 185 12.9 24.1 0.00 0.00 0.00 21 1000.6
20260504211534 29 185 14.5 22.5 0.00 0.00 0.00 21 1000.8
20260504210033 29 185 11.3 24.1 0.00 0.00 0.00 21 1001.1
20260504204541 29 185 12.9 25.7 0.00 0.00 0.00 20 1001.2
20260504203028 30 185 12.9 22.5 0.00 0.00 0.00 21 1001.3
20260504201529 29 185 8.0 25.7 0.00 0.00 0.00 21 1001.5
20260504200034 30 185 3.2 20.9 0.00 0.00 0.00 20 1001.7
20260504194529 30 185 11.3 19.3 0.00 0.00 0.00 19 1001.8
20260504193032 30 185 4.8 17.7 0.00 0.00 0.00 19 1001.9
20260504191530 30 185 12.9 20.9 0.00 0.00 0.00 20 1001.9
20260504190029 30 185 1.6 16.1 0.00 0.00 0.00 18 1002.4
20260504184528 31 185 8.0 22.5 0.00 0.00 0.00 17 1002.5
20260504183030 31 185 3.2 9.7 0.00 0.00 0.00 17 1002.6
20260504181539 31 185 8.0 19.3 0.00 0.00 0.00 18 1003.0
20260504180032 32 185 6.4 22.5 0.00 0.00 0.00 18 1003.1
20260504174528 31 185 1.6 14.5 0.00 0.00 0.00 18 1003.2
20260504173032 31 185 9.7 16.1 0.00 0.00 0.00 18 1003.4
20260504171528 30 0 1.6 16.1 0.00 0.00 0.00 18 1003.4
20260504081528 15 185 16.1 20.9 0.00 0.00 0.00 44 1005.3